Date String (YYYY-MM-DD hh:mm:ss) UTC,Instrument flags,absolute air pressure of the measurement (hPa),sample flow rate (lpm),inlet stack bypass flow (lpm),air temperature of the measurement (°C),ambient temperature measured by the external sensor (°C),aerosol sample conditioner tube jacket temperature (°C),OPC LED temperature (°C),internal box temperature (°C),relative humidity of the measurement (%),span deviation,mass concentration of particles derived from Lorenz-Mie calculation of OPC scattering (μg/m³),mass concentration of particles derived from Lorenz-Mie calculation of OPC scattering (μg/m³),mass concentration of particles derived from Lorenz-Mie calculation of OPC scattering (μg/m³)
DateTimeUTC,F1_M11,P_M11,Q1_M11,Q2_M11,T1_M11,T2_M11,T3_M11,T4_M11,T5_M11,U1_M11,ZSPAN_M11,X0_M11,X2_M11,X1_M11
2023-06-08 03:00:00,SystemResetWarning,0829.3,5.00,000.00,030.0,028.5,000.0,038.5,031.5,21.8,0000.0,0002.50,0001.49,0001.14
2023-06-08 03:01:00,SystemResetWarning,0829.4,5.00,000.00,030.0,028.5,000.0,038.5,031.5,22.0,0000.0,0002.76,0001.50,0001.15
2023-06-08 03:02:00,SystemResetWarning,0829.4,5.00,000.00,030.0,028.5,000.0,038.5,031.5,22.0,0000.0,0003.03,0001.50,0001.16
2023-06-08 03:03:00,SystemResetWarning,0829.4,4.99,000.00,030.0,028.5,000.0,038.5,031.5,22.0,0000.0,0003.41,0001.54,0001.16
2023-06-08 03:04:00,SystemResetWarning,0829.4,4.99,000.00,030.0,028.5,000.0,038.5,031.5,22.0,0000.0,0003.67,0001.59,0001.16
2023-06-08 03:05:00,SystemResetWarning,0829.4,5.00,000.00,030.0,028.5,000.0,038.5,031.5,22.1,0000.0,0003.78,0001.64,0001.17
2023-06-08 03:06:00,SystemResetWarning,0829.5,5.01,000.00,030.0,028.5,000.0,038.5,031.5,22.2,0000.0,0003.78,0001.64,0001.18
2023-06-08 03:07:00,SystemResetWarning,0829.5,5.00,000.00,030.1,028.6,000.0,038.5,031.6,22.1,0000.0,0003.80,0001.64,0001.18
2023-06-08 03:08:00,SystemResetWarning,0829.6,4.99,000.00,030.1,028.6,000.0,038.6,031.6,22.0,0000.0,0003.98,0001.67,0001.18
2023-06-08 03:09:00,SystemResetWarning,0829.6,4.99,000.00,030.1,028.6,000.0,038.6,031.6,22.2,0000.0,0003.94,0001.66,0001.18
2023-06-08 03:10:00,SystemResetWarning,0829.7,5.02,000.00,030.1,028.6,000.0,038.6,031.6,22.3,0000.0,0003.84,0001.65,0001.18
2023-06-08 03:11:00,SystemResetWarning,0829.7,5.01,000.00,030.1,028.6,000.0,038.6,031.6,22.4,0000.0,0003.80,0001.62,0001.17
2023-06-08 03:12:00,SystemResetWarning,0829.7,5.00,000.00,030.1,028.6,000.0,038.6,031.6,22.6,0000.0,0003.52,0001.60,0001.15
2023-06-08 03:13:00,SystemResetWarning,0829.7,4.99,000.00,030.1,028.2,000.0,038.6,031.7,22.7,0000.0,0003.35,0001.58,0001.15
2023-06-08 03:14:00,SystemResetWarning,0829.7,4.99,000.00,030.1,026.0,000.0,038.6,031.5,22.8,0000.0,0003.00,0001.57,0001.15
2023-06-08 03:15:00,SystemResetWarning,0829.7,5.01,000.00,030.1,024.8,000.0,038.5,031.4,23.0,0000.0,0002.91,0001.59,0001.17
2023-06-08 03:16:00,SystemResetWarning,0829.7,5.01,000.00,030.0,024.9,000.0,038.5,031.2,23.2,0000.0,0002.89,0001.61,0001.18
2023-06-08 03:17:00,SystemResetWarning,0829.8,4.98,000.00,029.8,025.2,000.0,038.5,030.9,23.6,0000.0,0003.06,0001.65,0001.19
2023-06-08 03:18:00,SystemResetWarning,0829.8,5.00,000.00,029.8,025.7,000.0,038.4,030.9,23.9,0000.0,0003.04,0001.69,0001.22
2023-06-08 03:19:00,SystemResetWarning,0829.8,5.00,000.00,029.7,026.1,000.0,038.4,030.9,24.0,0000.0,0002.84,0001.70,0001.24
2023-06-08 03:20:00,SystemResetWarning,0829.9,5.01,000.00,029.7,026.4,000.0,038.4,030.9,24.2,0000.0,0003.26,0001.73,0001.26
2023-06-08 03:21:00,SystemResetWarning,0829.9,4.99,000.00,029.7,026.8,000.0,038.4,030.9,24.3,0000.0,0004.24,0001.75,0001.28
2023-06-08 03:22:00,SystemResetWarning,0829.9,5.00,000.00,029.6,027.0,000.0,038.3,030.9,24.3,0000.0,0004.31,0001.80,0001.31
2023-06-08 03:23:00,SystemResetWarning,0830.0,5.00,000.00,029.6,027.2,000.0,038.3,031.0,24.3,0000.0,0005.16,0001.90,0001.35
2023-06-08 03:24:00,SystemResetWarning,0830.0,5.00,000.00,029.6,027.4,000.0,038.3,031.0,24.1,0000.0,0005.28,0001.99,0001.41
2023-06-08 03:25:00,SystemResetWarning,0830.0,5.00,000.00,029.6,027.5,000.0,038.3,031.0,24.0,0000.0,0006.48,0002.04,0001.43
2023-06-08 03:26:00,SystemResetWarning,0830.0,5.00,000.00,029.6,027.7,000.0,038.3,031.0,23.6,0000.0,0007.23,0002.07,0001.45
2023-06-08 03:27:00,SystemResetWarning,0830.0,4.99,000.00,029.6,027.7,000.0,038.3,031.1,23.5,0000.0,0007.69,0002.05,0001.46
2023-06-08 03:28:00,SystemResetWarning,0830.0,5.01,000.00,029.6,027.8,000.0,038.3,031.1,23.3,0000.0,0007.66,0002.05,0001.47
2023-06-08 03:29:00,SystemResetWarning,0830.0,4.99,000.00,029.6,027.9,000.0,038.3,031.1,23.5,0000.0,0007.67,0002.03,0001.47
2023-06-08 03:30:00,SystemResetWarning,0830.0,4.99,000.00,029.7,027.9,000.0,038.3,031.1,23.6,0000.0,0007.69,0002.02,0001.48
2023-06-08 03:31:00,SystemResetWarning,0830.0,5.00,000.00,029.6,028.0,000.0,038.3,031.1,23.5,0000.0,0007.63,0002.03,0001.48
2023-06-08 03:32:00,SystemResetWarning,0830.0,4.99,000.00,029.7,028.0,000.0,038.3,031.1,23.6,0000.0,0007.21,0002.08,0001.49
2023-06-08 03:33:00,SystemResetWarning,0830.0,5.00,000.00,029.7,028.0,000.0,038.3,031.2,23.6,0000.0,0007.56,0002.13,0001.49
2023-06-08 03:34:00,SystemResetWarning,0830.1,5.00,000.00,029.7,028.0,000.0,038.3,031.2,23.6,0000.0,0007.11,0002.12,0001.48
2023-06-08 03:35:00,SystemResetWarning,0830.0,5.00,000.00,029.7,028.1,000.0,038.3,031.2,23.6,0000.0,0007.03,0002.08,0001.47
2023-06-08 03:36:00,SystemResetWarning,0830.1,5.00,000.00,029.7,028.1,000.0,038.3,031.2,23.7,0000.0,0005.96,0002.07,0001.47
2023-06-08 03:37:00,SystemResetWarning,0830.1,5.00,000.00,029.7,028.1,000.0,038.3,031.2,23.7,0000.0,0005.34,0002.03,0001.46
2023-06-08 03:38:00,SystemResetWarning,0830.2,5.00,000.00,029.7,028.1,000.0,038.3,031.2,23.8,0000.0,0004.60,0002.03,0001.47
2023-06-08 03:39:00,SystemResetWarning,0830.3,5.01,000.00,029.7,028.2,000.0,038.3,031.3,23.8,0000.0,0004.67,0002.04,0001.46
2023-06-08 03:40:00,SystemResetWarning,0830.3,5.01,000.00,029.7,028.2,000.0,038.3,031.3,23.8,0000.0,0004.97,0002.08,0001.46
2023-06-08 03:41:00,SystemResetWarning,0830.3,5.00,000.00,029.7,028.2,000.0,038.3,031.3,23.7,0000.0,0005.05,0002.09,0001.46
2023-06-08 03:42:00,SystemResetWarning,0830.2,5.00,000.00,029.8,028.2,000.0,038.3,031.3,23.6,0000.0,0005.13,0002.12,0001.45
2023-06-08 03:43:00,SystemResetWarning,0830.3,5.00,000.00,029.8,028.2,000.0,038.3,031.3,23.8,0000.0,0004.91,0002.09,0001.43
2023-06-08 03:44:00,SystemResetWarning,0830.3,5.00,000.00,029.8,028.2,000.0,038.3,031.3,23.9,0000.0,0004.13,0002.04,0001.43
2023-06-08 03:45:00,SystemResetWarning,0830.3,5.00,000.00,029.8,028.2,000.0,038.3,031.3,23.9,0000.0,0004.52,0001.99,0001.44
2023-06-08 03:46:00,SystemResetWarning,0830.3,5.00,000.00,029.8,028.2,000.0,038.3,031.3,23.8,0000.0,0005.75,0002.02,0001.44
2023-06-08 03:47:00,SystemResetWarning,0830.4,5.00,000.00,029.8,028.3,000.0,038.3,031.3,23.7,0000.0,0005.69,0002.01,0001.42
2023-06-08 03:48:00,SystemResetWarning,0830.4,5.00,000.00,029.8,028.3,000.0,038.4,031.3,23.7,0000.0,0005.27,0001.97,0001.41
2023-06-08 03:49:00,SystemResetWarning,0830.4,5.00,000.00,029.8,028.3,000.0,038.4,031.3,23.8,0000.0,0005.25,0001.94,0001.40
2023-06-08 03:50:00,SystemResetWarning,0830.4,4.99,000.00,029.9,028.3,000.0,038.4,031.3,23.6,0000.0,0005.14,0001.90,0001.39
2023-06-08 03:51:00,SystemResetWarning,0830.4,5.00,000.00,029.9,028.3,000.0,038.4,031.4,23.8,0000.0,0004.82,0001.88,0001.39
2023-06-08 03:52:00,SystemResetWarning,0830.4,5.00,000.00,029.9,028.3,000.0,038.4,031.4,23.5,0000.0,0004.64,0001.87,0001.39
2023-06-08 03:53:00,SystemResetWarning,0830.4,5.01,000.00,029.9,028.3,000.0,038.4,031.4,23.4,0000.0,0004.82,0001.83,0001.39
2023-06-08 03:54:00,SystemResetWarning,0830.5,5.01,000.00,029.9,028.3,000.0,038.4,031.4,23.4,0000.0,0004.96,0001.86,0001.39
2023-06-08 03:55:00,SystemResetWarning,0830.7,5.02,000.00,029.9,028.4,000.0,038.4,031.4,23.4,0000.0,0004.93,0001.86,0001.39
2023-06-08 03:56:00,SystemResetWarning,0830.6,5.00,000.00,029.9,028.4,000.0,038.4,031.4,23.3,0000.0,0004.89,0001.83,0001.37
2023-06-08 03:57:00,SystemResetWarning,0830.4,4.99,000.00,029.9,028.4,000.0,038.4,031.4,23.2,0000.0,0003.20,0001.79,0001.36
2023-06-08 03:58:00,SystemResetWarning,0830.6,4.99,000.00,029.9,028.4,000.0,038.4,031.4,23.2,0000.0,0003.46,0001.75,0001.34
2023-06-08 03:59:00,SystemResetWarning,0830.6,5.01,000.00,030.0,028.4,000.0,038.4,031.4,23.1,0000.0,0003.88,0001.78,0001.33
